User: anonymous   Login
Location: Irma
(52.9170°N, 111.2330°W)
Time: 14:54:35
(UTC-06:00)
Language:

Cosmos 1633 Rocket - Orbit

View from above orbital plane
View from above orbital plane
View from above satellite
View from above satellite

Ground track
Ground track

The orbit data is extracted from the following two-line orbital elements,

1 15593U 85020B   17084.79169714 +.00000110 +00000-0 +10233-4 0  9997
2 15593 082.5400 340.7012 0010654 321.7031 106.0791 14.84264401710831
Epoch (UTC): 25 March 2017 19:00:02
Eccentricity: 0.0010654
inclination: 82.5400°
perigee height: 608 km
apogee height: 623 km
right ascension of ascending node: 340.7012°
argument of perigee: 321.7031°
revolutions per day: 14.84264401
mean anomaly at epoch: 106.0791°
orbit number at epoch: 71083

The dashed part of the orbit path shows where the satellite is in the earth's shadow,  

DLR